Location: Peebles
(55.6412°N, 3.1714°W)
Time: 18:12:20
(UTC+01:00)

USA 238 DEB - Pass Details

Date: 27 January 2022
Orbit: 969 x 1243 km, 63.4° (Epoch: 04 May)

Event Time Altitude Azimuth Distance (km) Brightness Sun altitude
Rises 18:31:54 0° 264° (W) 3,755 8.4 -15.9°
Reaches altitude 10° 18:34:32 10° 270° (W) 2,837 7.2 -16.3°
Maximum altitude 18:41:03 50° 345° (NNW) 1,357 4.3 -17.2°
Enters shadow 18:45:42 21° 52° (NE) 2,278 4.9 -17.9°
